Multibeam Report for NBP1310A


Ship Name: Nathaniel B. Palmer
Chief Scientist: St. Laurent, Louis
Woods Hole Oceanographic Institution
Source Organization: Marine Geoscience Data System (MGDS)
Start Date: 2013-10-26
End Date: 2013-11-13


View ISO Metadata

Visit the full NCEI Bathymetry Viewer


Multibeam Bathymetry

Cruise Details

Project: Measure hydrography, tracer, and turbulence levels along the Phoenix Ridge and Shackleton Fracture Zone in Drake Passage
Instrument: Kongsberg EM120

Data Quality

Number of Files: 365
Number of Records: 134286
BATHYMETRY DATA Quantity Percentage
Number of Beams 25648626 100%
Number of Good Beams 19741179 76.97%
Number of Zero Beams 5907447 23.03%
Number of Flagged Beams 0 0%
AMPLITUDE DATA Quantity Percentage
Number of Beams 25648626 100%
Number of Good Beams 19741179 76.97%
Number of Zero Beams 5907447 23.03%
Number of Flagged Beams 0 0%
SIDESCAN DATA Quantity Percentage
Number of Pixels 137508864 100%
Number of Good Pixels 68831813 50.06%
Number of Zero Pixels 0 0%
Number of Flagged Pixels 68677051 49.94%

Navigation Totals

Total Time: 353.7341 hours
Total Track Length: 2905.1535 km
Average Speed: 8.213 km/hr (4.4347 knots)

Cruise Bounds

Northern Extent: -54.997604
Southern Extent: -58.566383
Western Extent: -66.04032
Eastern Extent: -63.355106

Limits

Minimum Sonar Depth 5.36 Maximum Sonar Depth 8.6
Minimum Altitude 0 Maximum Altitude 5257.9199
Minimum Depth 258.61 Maximum Depth 5780.21
Minimum Amplitude 0 Maximum Amplitude 23
Minimum Sidescan 0 Maximum Sidescan 63

File Information

Full Resolution Bathymetry as collected (raw): 362

Files File Size Description
0000_20131028_070720_raw.all.mb56.gz 3.13MB Simrad multibeam vendor format
0001_20131028_071850_raw.all.mb56.gz 10.43MB Simrad multibeam vendor format
0002_20131028_081850_raw.all.mb56.gz 9.32MB Simrad multibeam vendor format
0003_20131028_091850_raw.all.mb56.gz 8.61MB Simrad multibeam vendor format
0004_20131028_101850_raw.all.mb56.gz 8.13MB Simrad multibeam vendor format
0005_20131028_111850_raw.all.mb56.gz 8.30MB Simrad multibeam vendor format
0006_20131028_121850_raw.all.mb56.gz 8.08MB Simrad multibeam vendor format
0007_20131028_131850_raw.all.mb56.gz 8.34MB Simrad multibeam vendor format
0008_20131028_141850_raw.all.mb56.gz 8.56MB Simrad multibeam vendor format
0009_20131028_151850_raw.all.mb56.gz 8.59MB Simrad multibeam vendor format
0010_20131028_161850_raw.all.mb56.gz 8.55MB Simrad multibeam vendor format
0011_20131028_171850_raw.all.mb56.gz 8.63MB Simrad multibeam vendor format
0012_20131028_181850_raw.all.mb56.gz 8.57MB Simrad multibeam vendor format
0013_20131028_191850_raw.all.mb56.gz 8.59MB Simrad multibeam vendor format
0014_20131028_201850_raw.all.mb56.gz 3.97MB Simrad multibeam vendor format
0015_20131028_204624_raw.all.mb56.gz 8.57MB Simrad multibeam vendor format
0016_20131028_214624_raw.all.mb56.gz 8.54MB Simrad multibeam vendor format
0017_20131028_224624_raw.all.mb56.gz 8.58MB Simrad multibeam vendor format
0018_20131028_234624_raw.all.mb56.gz 8.73MB Simrad multibeam vendor format
0019_20131029_004624_raw.all.mb56.gz 8.50MB Simrad multibeam vendor format
0020_20131029_014624_raw.all.mb56.gz 8.34MB Simrad multibeam vendor format
0021_20131029_024624_raw.all.mb56.gz 8.21MB Simrad multibeam vendor format
0022_20131029_034624_raw.all.mb56.gz 8.50MB Simrad multibeam vendor format
0023_20131029_044624_raw.all.mb56.gz 8.66MB Simrad multibeam vendor format
0024_20131029_054624_raw.all.mb56.gz 8.56MB Simrad multibeam vendor format
0025_20131029_064624_raw.all.mb56.gz 8.70MB Simrad multibeam vendor format
0026_20131029_074624_raw.all.mb56.gz 8.71MB Simrad multibeam vendor format
0027_20131029_084624_raw.all.mb56.gz 8.40MB Simrad multibeam vendor format
0028_20131029_094624_raw.all.mb56.gz 8.05MB Simrad multibeam vendor format
0029_20131029_104624_raw.all.mb56.gz 2.93MB Simrad multibeam vendor format
0030_20131029_110816_raw.all.mb56.gz 8.87MB Simrad multibeam vendor format
0031_20131029_120816_raw.all.mb56.gz 8.89MB Simrad multibeam vendor format
0032_20131029_130816_raw.all.mb56.gz 8.86MB Simrad multibeam vendor format
0033_20131029_140816_raw.all.mb56.gz 8.91MB Simrad multibeam vendor format
0034_20131029_150816_raw.all.mb56.gz 8.70MB Simrad multibeam vendor format
0035_20131029_160816_raw.all.mb56.gz 8.10MB Simrad multibeam vendor format
0036_20131029_170829_raw.all.mb56.gz 8.23MB Simrad multibeam vendor format
0037_20131029_180828_raw.all.mb56.gz 8.77MB Simrad multibeam vendor format
0038_20131029_190828_raw.all.mb56.gz 9.73MB Simrad multibeam vendor format
0039_20131029_200828_raw.all.mb56.gz 10.11MB Simrad multibeam vendor format
0040_20131029_210828_raw.all.mb56.gz 9.70MB Simrad multibeam vendor format
0041_20131029_220828_raw.all.mb56.gz 9.78MB Simrad multibeam vendor format
0042_20131029_230828_raw.all.mb56.gz 9.50MB Simrad multibeam vendor format
0043_20131030_000828_raw.all.mb56.gz 9.54MB Simrad multibeam vendor format
0044_20131030_010828_raw.all.mb56.gz 9.67MB Simrad multibeam vendor format
0045_20131030_020828_raw.all.mb56.gz 9.62MB Simrad multibeam vendor format
0046_20131030_030828_raw.all.mb56.gz 9.62MB Simrad multibeam vendor format
0047_20131030_040828_raw.all.mb56.gz 9.25MB Simrad multibeam vendor format
0048_20131030_050828_raw.all.mb56.gz 8.17MB Simrad multibeam vendor format
0049_20131030_060828_raw.all.mb56.gz 7.91MB Simrad multibeam vendor format
0050_20131030_070828_raw.all.mb56.gz 8.45MB Simrad multibeam vendor format
0051_20131030_080828_raw.all.mb56.gz 8.62MB Simrad multibeam vendor format
0052_20131030_090828_raw.all.mb56.gz 8.67MB Simrad multibeam vendor format
0053_20131030_100829_raw.all.mb56.gz 8.66MB Simrad multibeam vendor format
0054_20131030_110829_raw.all.mb56.gz 8.32MB Simrad multibeam vendor format
0055_20131030_120829_raw.all.mb56.gz 7.99MB Simrad multibeam vendor format
0056_20131030_130829_raw.all.mb56.gz 8.02MB Simrad multibeam vendor format
0057_20131030_140829_raw.all.mb56.gz 8.09MB Simrad multibeam vendor format
0058_20131030_150828_raw.all.mb56.gz 8.00MB Simrad multibeam vendor format
0059_20131030_160828_raw.all.mb56.gz 8.55MB Simrad multibeam vendor format
0060_20131030_170828_raw.all.mb56.gz 8.42MB Simrad multibeam vendor format
0061_20131030_180828_raw.all.mb56.gz 8.42MB Simrad multibeam vendor format
0062_20131030_190828_raw.all.mb56.gz 8.37MB Simrad multibeam vendor format
0063_20131030_200828_raw.all.mb56.gz 8.43MB Simrad multibeam vendor format
0064_20131030_210828_raw.all.mb56.gz 8.84MB Simrad multibeam vendor format
0065_20131030_220828_raw.all.mb56.gz 9.81MB Simrad multibeam vendor format
0066_20131030_230828_raw.all.mb56.gz 9.71MB Simrad multibeam vendor format
0067_20131031_000828_raw.all.mb56.gz 9.65MB Simrad multibeam vendor format
0068_20131031_010828_raw.all.mb56.gz 9.11MB Simrad multibeam vendor format
0069_20131031_020828_raw.all.mb56.gz 9.10MB Simrad multibeam vendor format
0070_20131031_030828_raw.all.mb56.gz 9.00MB Simrad multibeam vendor format
0071_20131031_040828_raw.all.mb56.gz 8.09MB Simrad multibeam vendor format
0072_20131031_050828_raw.all.mb56.gz 9.18MB Simrad multibeam vendor format
0073_20131031_060828_raw.all.mb56.gz 8.36MB Simrad multibeam vendor format
0074_20131031_070828_raw.all.mb56.gz 9.67MB Simrad multibeam vendor format
0075_20131031_080828_raw.all.mb56.gz 9.40MB Simrad multibeam vendor format
0076_20131031_090828_raw.all.mb56.gz 8.99MB Simrad multibeam vendor format
0077_20131031_100828_raw.all.mb56.gz 8.24MB Simrad multibeam vendor format
0078_20131031_110828_raw.all.mb56.gz 8.52MB Simrad multibeam vendor format
0079_20131031_120828_raw.all.mb56.gz 7.96MB Simrad multibeam vendor format
0080_20131031_130828_raw.all.mb56.gz 1.43MB Simrad multibeam vendor format
0081_20131031_131904_raw.all.mb56.gz 8.15MB Simrad multibeam vendor format
0082_20131031_141904_raw.all.mb56.gz 8.49MB Simrad multibeam vendor format
0083_20131031_151904_raw.all.mb56.gz 8.66MB Simrad multibeam vendor format
0084_20131031_161904_raw.all.mb56.gz 9.62MB Simrad multibeam vendor format
0085_20131031_171904_raw.all.mb56.gz 9.67MB Simrad multibeam vendor format
0086_20131031_181904_raw.all.mb56.gz 9.29MB Simrad multibeam vendor format
0087_20131031_191904_raw.all.mb56.gz 8.95MB Simrad multibeam vendor format
0088_20131031_201904_raw.all.mb56.gz 9.05MB Simrad multibeam vendor format
0089_20131031_211904_raw.all.mb56.gz 9.00MB Simrad multibeam vendor format
0090_20131031_221904_raw.all.mb56.gz 8.97MB Simrad multibeam vendor format
0091_20131031_231904_raw.all.mb56.gz 8.95MB Simrad multibeam vendor format
0092_20131101_001904_raw.all.mb56.gz 9.33MB Simrad multibeam vendor format
0093_20131101_011904_raw.all.mb56.gz 9.69MB Simrad multibeam vendor format
0094_20131101_021904_raw.all.mb56.gz 9.61MB Simrad multibeam vendor format
0095_20131101_031904_raw.all.mb56.gz 8.83MB Simrad multibeam vendor format
0096_20131101_041904_raw.all.mb56.gz 4.33MB Simrad multibeam vendor format
0097_20131101_044912_raw.all.mb56.gz 8.77MB Simrad multibeam vendor format
0098_20131101_054912_raw.all.mb56.gz 9.05MB Simrad multibeam vendor format
0099_20131101_064912_raw.all.mb56.gz 9.14MB Simrad multibeam vendor format
0100_20131101_074912_raw.all.mb56.gz 9.13MB Simrad multibeam vendor format
0101_20131101_084912_raw.all.mb56.gz 9.13MB Simrad multibeam vendor format
0102_20131101_094912_raw.all.mb56.gz 8.80MB Simrad multibeam vendor format
0103_20131101_104912_raw.all.mb56.gz 8.91MB Simrad multibeam vendor format
0104_20131101_114912_raw.all.mb56.gz 8.96MB Simrad multibeam vendor format
0105_20131101_124912_raw.all.mb56.gz 8.72MB Simrad multibeam vendor format
0106_20131101_134912_raw.all.mb56.gz 8.43MB Simrad multibeam vendor format
0107_20131101_144912_raw.all.mb56.gz 9.03MB Simrad multibeam vendor format
0108_20131101_154912_raw.all.mb56.gz 9.10MB Simrad multibeam vendor format
0109_20131101_164912_raw.all.mb56.gz 8.83MB Simrad multibeam vendor format
0110_20131101_174912_raw.all.mb56.gz 9.09MB Simrad multibeam vendor format
0111_20131101_184912_raw.all.mb56.gz 9.35MB Simrad multibeam vendor format
0112_20131101_194912_raw.all.mb56.gz 9.12MB Simrad multibeam vendor format
0113_20131101_204912_raw.all.mb56.gz 8.60MB Simrad multibeam vendor format
0114_20131101_214912_raw.all.mb56.gz 8.61MB Simrad multibeam vendor format
0115_20131101_224912_raw.all.mb56.gz 8.48MB Simrad multibeam vendor format
0116_20131101_234912_raw.all.mb56.gz 8.63MB Simrad multibeam vendor format
0117_20131102_004912_raw.all.mb56.gz 8.78MB Simrad multibeam vendor format
0118_20131102_014912_raw.all.mb56.gz 8.97MB Simrad multibeam vendor format
0119_20131102_024912_raw.all.mb56.gz 3.97MB Simrad multibeam vendor format
0120_20131102_031613_raw.all.mb56.gz 8.36MB Simrad multibeam vendor format
0121_20131102_041613_raw.all.mb56.gz 8.53MB Simrad multibeam vendor format
0122_20131102_051613_raw.all.mb56.gz 8.91MB Simrad multibeam vendor format
0123_20131102_061613_raw.all.mb56.gz 9.48MB Simrad multibeam vendor format
0124_20131102_071613_raw.all.mb56.gz 9.73MB Simrad multibeam vendor format
0125_20131102_081613_raw.all.mb56.gz 8.94MB Simrad multibeam vendor format
0126_20131102_091613_raw.all.mb56.gz 2.84MB Simrad multibeam vendor format
0127_20131102_093543_raw.all.mb56.gz 8.97MB Simrad multibeam vendor format
0128_20131102_103543_raw.all.mb56.gz 8.88MB Simrad multibeam vendor format
0129_20131102_113543_raw.all.mb56.gz 8.94MB Simrad multibeam vendor format
0130_20131102_123543_raw.all.mb56.gz 8.99MB Simrad multibeam vendor format
0131_20131102_133543_raw.all.mb56.gz 8.91MB Simrad multibeam vendor format
0132_20131102_143543_raw.all.mb56.gz 9.52MB Simrad multibeam vendor format
0133_20131102_153543_raw.all.mb56.gz 9.71MB Simrad multibeam vendor format
0134_20131102_163543_raw.all.mb56.gz 9.36MB Simrad multibeam vendor format
0135_20131102_173543_raw.all.mb56.gz 8.98MB Simrad multibeam vendor format
0136_20131102_183543_raw.all.mb56.gz 9.16MB Simrad multibeam vendor format
0137_20131102_193543_raw.all.mb56.gz 9.07MB Simrad multibeam vendor format
0138_20131102_203543_raw.all.mb56.gz 9.06MB Simrad multibeam vendor format
0139_20131102_213543_raw.all.mb56.gz 9.11MB Simrad multibeam vendor format
0140_20131102_223543_raw.all.mb56.gz 8.57MB Simrad multibeam vendor format
0141_20131102_233543_raw.all.mb56.gz 12.97MB Simrad multibeam vendor format
0142_20131103_003543_raw.all.mb56.gz 12.47MB Simrad multibeam vendor format
0143_20131103_013543_raw.all.mb56.gz 13.74MB Simrad multibeam vendor format
0144_20131103_023543_raw.all.mb56.gz 12.99MB Simrad multibeam vendor format
0145_20131103_033543_raw.all.mb56.gz 9.99MB Simrad multibeam vendor format
0146_20131103_043543_raw.all.mb56.gz 10.35MB Simrad multibeam vendor format
0147_20131103_053543_raw.all.mb56.gz 13.15MB Simrad multibeam vendor format
0148_20131103_063543_raw.all.mb56.gz 9.88MB Simrad multibeam vendor format
0149_20131103_073543_raw.all.mb56.gz 11.21MB Simrad multibeam vendor format
0150_20131103_083543_raw.all.mb56.gz 11.48MB Simrad multibeam vendor format
0151_20131103_093543_raw.all.mb56.gz 13.03MB Simrad multibeam vendor format
0152_20131103_103543_raw.all.mb56.gz 15.13MB Simrad multibeam vendor format
0153_20131103_113543_raw.all.mb56.gz 13.46MB Simrad multibeam vendor format
0154_20131103_123543_raw.all.mb56.gz 10.63MB Simrad multibeam vendor format
0155_20131103_133543_raw.all.mb56.gz 11.10MB Simrad multibeam vendor format
0156_20131103_143543_raw.all.mb56.gz 10.29MB Simrad multibeam vendor format
0157_20131103_153543_raw.all.mb56.gz 9.82MB Simrad multibeam vendor format
0158_20131103_163543_raw.all.mb56.gz 10.07MB Simrad multibeam vendor format
0159_20131103_173543_raw.all.mb56.gz 10.23MB Simrad multibeam vendor format
0160_20131103_183543_raw.all.mb56.gz 10.83MB Simrad multibeam vendor format
0161_20131103_193543_raw.all.mb56.gz 10.71MB Simrad multibeam vendor format
0162_20131103_203543_raw.all.mb56.gz 11.03MB Simrad multibeam vendor format
0163_20131103_213543_raw.all.mb56.gz 10.78MB Simrad multibeam vendor format
0164_20131103_223543_raw.all.mb56.gz 10.55MB Simrad multibeam vendor format
0165_20131103_233543_raw.all.mb56.gz 11.39MB Simrad multibeam vendor format
0166_20131104_003543_raw.all.mb56.gz 11.17MB Simrad multibeam vendor format
0167_20131104_013543_raw.all.mb56.gz 11.86MB Simrad multibeam vendor format
0168_20131104_023543_raw.all.mb56.gz 11.07MB Simrad multibeam vendor format
0169_20131104_033543_raw.all.mb56.gz 11.29MB Simrad multibeam vendor format
0170_20131104_043543_raw.all.mb56.gz 12.01MB Simrad multibeam vendor format
0171_20131104_053543_raw.all.mb56.gz 12.26MB Simrad multibeam vendor format
0172_20131104_063543_raw.all.mb56.gz 11.66MB Simrad multibeam vendor format
0173_20131104_073543_raw.all.mb56.gz 11.37MB Simrad multibeam vendor format
0174_20131104_083543_raw.all.mb56.gz 11.94MB Simrad multibeam vendor format
0175_20131104_093543_raw.all.mb56.gz 12.14MB Simrad multibeam vendor format
0176_20131104_103543_raw.all.mb56.gz 10.52MB Simrad multibeam vendor format
0177_20131104_113543_raw.all.mb56.gz 10.36MB Simrad multibeam vendor format
0178_20131104_123543_raw.all.mb56.gz 9.93MB Simrad multibeam vendor format
0179_20131104_133543_raw.all.mb56.gz 10.59MB Simrad multibeam vendor format
0180_20131104_143543_raw.all.mb56.gz 10.96MB Simrad multibeam vendor format
0181_20131104_153543_raw.all.mb56.gz 9.46MB Simrad multibeam vendor format
0182_20131104_163543_raw.all.mb56.gz 8.67MB Simrad multibeam vendor format
0183_20131104_173543_raw.all.mb56.gz 10.18MB Simrad multibeam vendor format
0184_20131104_183543_raw.all.mb56.gz 10.00MB Simrad multibeam vendor format
0185_20131104_193543_raw.all.mb56.gz 8.79MB Simrad multibeam vendor format
0186_20131104_203543_raw.all.mb56.gz 8.49MB Simrad multibeam vendor format
0187_20131104_213543_raw.all.mb56.gz 8.66MB Simrad multibeam vendor format
0188_20131104_223543_raw.all.mb56.gz 10.58MB Simrad multibeam vendor format
0189_20131104_233543_raw.all.mb56.gz 9.93MB Simrad multibeam vendor format
0190_20131105_003543_raw.all.mb56.gz 9.11MB Simrad multibeam vendor format
0191_20131105_013543_raw.all.mb56.gz 9.74MB Simrad multibeam vendor format
0192_20131105_023543_raw.all.mb56.gz 10.41MB Simrad multibeam vendor format
0193_20131105_033543_raw.all.mb56.gz 14.86MB Simrad multibeam vendor format
0194_20131105_043543_raw.all.mb56.gz 11.93MB Simrad multibeam vendor format
0195_20131105_053543_raw.all.mb56.gz 9.18MB Simrad multibeam vendor format
0196_20131105_063543_raw.all.mb56.gz 9.15MB Simrad multibeam vendor format
0197_20131105_073543_raw.all.mb56.gz 8.87MB Simrad multibeam vendor format
0198_20131105_083543_raw.all.mb56.gz 8.91MB Simrad multibeam vendor format
0199_20131105_093543_raw.all.mb56.gz 8.93MB Simrad multibeam vendor format
0200_20131105_103543_raw.all.mb56.gz 8.91MB Simrad multibeam vendor format
0201_20131105_113543_raw.all.mb56.gz 9.39MB Simrad multibeam vendor format
0202_20131105_123543_raw.all.mb56.gz 9.11MB Simrad multibeam vendor format
0203_20131105_133543_raw.all.mb56.gz 8.84MB Simrad multibeam vendor format
0204_20131105_143543_raw.all.mb56.gz 8.45MB Simrad multibeam vendor format
0205_20131105_153543_raw.all.mb56.gz 8.31MB Simrad multibeam vendor format
0206_20131105_163543_raw.all.mb56.gz 8.34MB Simrad multibeam vendor format
0207_20131105_173546_raw.all.mb56.gz 8.48MB Simrad multibeam vendor format
0208_20131105_183546_raw.all.mb56.gz 8.43MB Simrad multibeam vendor format
0209_20131105_193546_raw.all.mb56.gz 8.57MB Simrad multibeam vendor format
0210_20131105_203546_raw.all.mb56.gz 8.59MB Simrad multibeam vendor format
0211_20131105_213546_raw.all.mb56.gz 8.56MB Simrad multibeam vendor format
0212_20131105_223546_raw.all.mb56.gz 8.76MB Simrad multibeam vendor format
0213_20131105_233546_raw.all.mb56.gz 8.69MB Simrad multibeam vendor format
0214_20131106_003546_raw.all.mb56.gz 8.51MB Simrad multibeam vendor format
0215_20131106_013547_raw.all.mb56.gz 8.44MB Simrad multibeam vendor format
0216_20131106_023547_raw.all.mb56.gz 3.21MB Simrad multibeam vendor format
0217_20131106_025656_raw.all.mb56.gz 9.06MB Simrad multibeam vendor format
0218_20131106_035656_raw.all.mb56.gz 8.56MB Simrad multibeam vendor format
0219_20131106_045656_raw.all.mb56.gz 8.92MB Simrad multibeam vendor format
0220_20131106_055656_raw.all.mb56.gz 9.36MB Simrad multibeam vendor format
0221_20131106_065656_raw.all.mb56.gz 9.93MB Simrad multibeam vendor format
0222_20131106_075656_raw.all.mb56.gz 9.30MB Simrad multibeam vendor format
0223_20131106_085656_raw.all.mb56.gz 9.06MB Simrad multibeam vendor format
0224_20131106_095656_raw.all.mb56.gz 9.34MB Simrad multibeam vendor format
0225_20131106_105656_raw.all.mb56.gz 9.30MB Simrad multibeam vendor format
0226_20131106_115656_raw.all.mb56.gz 8.92MB Simrad multibeam vendor format
0227_20131106_125656_raw.all.mb56.gz 9.45MB Simrad multibeam vendor format
0228_20131106_135656_raw.all.mb56.gz 9.44MB Simrad multibeam vendor format
0229_20131106_145656_raw.all.mb56.gz 9.15MB Simrad multibeam vendor format
0230_20131106_155656_raw.all.mb56.gz 9.08MB Simrad multibeam vendor format
0231_20131106_165656_raw.all.mb56.gz 9.37MB Simrad multibeam vendor format
0232_20131106_175656_raw.all.mb56.gz 9.31MB Simrad multibeam vendor format
0233_20131106_185656_raw.all.mb56.gz 8.58MB Simrad multibeam vendor format
0234_20131106_195656_raw.all.mb56.gz 8.74MB Simrad multibeam vendor format
0235_20131106_205656_raw.all.mb56.gz 8.92MB Simrad multibeam vendor format
0236_20131106_215656_raw.all.mb56.gz 8.89MB Simrad multibeam vendor format
0237_20131106_225656_raw.all.mb56.gz 9.80MB Simrad multibeam vendor format
0238_20131106_235656_raw.all.mb56.gz 9.62MB Simrad multibeam vendor format
0239_20131107_005656_raw.all.mb56.gz 8.50MB Simrad multibeam vendor format
0240_20131107_015656_raw.all.mb56.gz 8.07MB Simrad multibeam vendor format
0241_20131107_025656_raw.all.mb56.gz 8.70MB Simrad multibeam vendor format
0242_20131107_035656_raw.all.mb56.gz 8.66MB Simrad multibeam vendor format
0243_20131107_045656_raw.all.mb56.gz 8.78MB Simrad multibeam vendor format
0244_20131107_055656_raw.all.mb56.gz 8.88MB Simrad multibeam vendor format
0245_20131107_065656_raw.all.mb56.gz 8.86MB Simrad multibeam vendor format
0246_20131107_075656_raw.all.mb56.gz 8.75MB Simrad multibeam vendor format
0247_20131107_085656_raw.all.mb56.gz 8.92MB Simrad multibeam vendor format
0248_20131107_095656_raw.all.mb56.gz 8.94MB Simrad multibeam vendor format
0249_20131107_105656_raw.all.mb56.gz 8.75MB Simrad multibeam vendor format
0250_20131107_115656_raw.all.mb56.gz 8.90MB Simrad multibeam vendor format
0251_20131107_125656_raw.all.mb56.gz 8.89MB Simrad multibeam vendor format
0252_20131107_135656_raw.all.mb56.gz 8.86MB Simrad multibeam vendor format
0253_20131107_145656_raw.all.mb56.gz 8.88MB Simrad multibeam vendor format
0254_20131107_155656_raw.all.mb56.gz 8.49MB Simrad multibeam vendor format
0255_20131107_165656_raw.all.mb56.gz 8.56MB Simrad multibeam vendor format
0256_20131107_175656_raw.all.mb56.gz 8.69MB Simrad multibeam vendor format
0257_20131107_185656_raw.all.mb56.gz 8.77MB Simrad multibeam vendor format
0258_20131107_195656_raw.all.mb56.gz 8.72MB Simrad multibeam vendor format
0259_20131107_205656_raw.all.mb56.gz 8.76MB Simrad multibeam vendor format
0260_20131107_215656_raw.all.mb56.gz 8.86MB Simrad multibeam vendor format
0261_20131107_225656_raw.all.mb56.gz 5.11MB Simrad multibeam vendor format
0261_20131108_000623_raw.all.mb56.gz 8.76MB Simrad multibeam vendor format
0262_20131108_010623_raw.all.mb56.gz 8.22MB Simrad multibeam vendor format
0263_20131108_020623_raw.all.mb56.gz 8.48MB Simrad multibeam vendor format
0264_20131108_030623_raw.all.mb56.gz 8.78MB Simrad multibeam vendor format
0265_20131108_040623_raw.all.mb56.gz 8.80MB Simrad multibeam vendor format
0266_20131108_050623_raw.all.mb56.gz 9.04MB Simrad multibeam vendor format
0267_20131108_060623_raw.all.mb56.gz 8.75MB Simrad multibeam vendor format
0268_20131108_070623_raw.all.mb56.gz 8.84MB Simrad multibeam vendor format
0269_20131108_080623_raw.all.mb56.gz 8.72MB Simrad multibeam vendor format
0270_20131108_090623_raw.all.mb56.gz 8.88MB Simrad multibeam vendor format
0271_20131108_100623_raw.all.mb56.gz 9.28MB Simrad multibeam vendor format
0272_20131108_110623_raw.all.mb56.gz 9.47MB Simrad multibeam vendor format
0273_20131108_120623_raw.all.mb56.gz 9.39MB Simrad multibeam vendor format
0274_20131108_130623_raw.all.mb56.gz 9.24MB Simrad multibeam vendor format
0275_20131108_140623_raw.all.mb56.gz 9.03MB Simrad multibeam vendor format
0276_20131108_150623_raw.all.mb56.gz 9.06MB Simrad multibeam vendor format
0277_20131108_160623_raw.all.mb56.gz 9.14MB Simrad multibeam vendor format
0278_20131108_170623_raw.all.mb56.gz 9.07MB Simrad multibeam vendor format
0279_20131108_180623_raw.all.mb56.gz 8.84MB Simrad multibeam vendor format
0280_20131108_190623_raw.all.mb56.gz 8.82MB Simrad multibeam vendor format
0281_20131108_200623_raw.all.mb56.gz 8.90MB Simrad multibeam vendor format
0282_20131108_210623_raw.all.mb56.gz 8.73MB Simrad multibeam vendor format
0283_20131108_220623_raw.all.mb56.gz 9.05MB Simrad multibeam vendor format
0284_20131108_230623_raw.all.mb56.gz 9.45MB Simrad multibeam vendor format
0285_20131109_000623_raw.all.mb56.gz 9.43MB Simrad multibeam vendor format
0286_20131109_010623_raw.all.mb56.gz 9.23MB Simrad multibeam vendor format
0287_20131109_020623_raw.all.mb56.gz 9.46MB Simrad multibeam vendor format
0288_20131109_030623_raw.all.mb56.gz 9.55MB Simrad multibeam vendor format
0289_20131109_040623_raw.all.mb56.gz 9.00MB Simrad multibeam vendor format
0290_20131109_050623_raw.all.mb56.gz 46.9KB Simrad multibeam vendor format
0291_20131109_050643_raw.all.mb56.gz 9.60MB Simrad multibeam vendor format
0292_20131109_060643_raw.all.mb56.gz 9.60MB Simrad multibeam vendor format
0293_20131109_070643_raw.all.mb56.gz 9.50MB Simrad multibeam vendor format
0294_20131109_080643_raw.all.mb56.gz 10.33MB Simrad multibeam vendor format
0295_20131109_090643_raw.all.mb56.gz 10.38MB Simrad multibeam vendor format
0296_20131109_100643_raw.all.mb56.gz 10.32MB Simrad multibeam vendor format
0297_20131109_110643_raw.all.mb56.gz 9.68MB Simrad multibeam vendor format
0298_20131109_120643_raw.all.mb56.gz 10.32MB Simrad multibeam vendor format
0299_20131109_130643_raw.all.mb56.gz 10.37MB Simrad multibeam vendor format
0300_20131109_140643_raw.all.mb56.gz 10.19MB Simrad multibeam vendor format
0301_20131109_150643_raw.all.mb56.gz 10.38MB Simrad multibeam vendor format
0302_20131109_160643_raw.all.mb56.gz 10.39MB Simrad multibeam vendor format
0303_20131109_170643_raw.all.mb56.gz 10.13MB Simrad multibeam vendor format
0304_20131109_180643_raw.all.mb56.gz 8.37MB Simrad multibeam vendor format
0305_20131109_190643_raw.all.mb56.gz 9.02MB Simrad multibeam vendor format
0306_20131109_200643_raw.all.mb56.gz 9.29MB Simrad multibeam vendor format
0307_20131109_210643_raw.all.mb56.gz 9.65MB Simrad multibeam vendor format
0308_20131109_220643_raw.all.mb56.gz 9.63MB Simrad multibeam vendor format
0309_20131109_230643_raw.all.mb56.gz 9.56MB Simrad multibeam vendor format
0310_20131110_000643_raw.all.mb56.gz 9.52MB Simrad multibeam vendor format
0311_20131110_010643_raw.all.mb56.gz 8.88MB Simrad multibeam vendor format
0312_20131110_020643_raw.all.mb56.gz 8.96MB Simrad multibeam vendor format
0313_20131110_030643_raw.all.mb56.gz 10.63MB Simrad multibeam vendor format
0314_20131110_040643_raw.all.mb56.gz 10.83MB Simrad multibeam vendor format
0315_20131110_050643_raw.all.mb56.gz 10.76MB Simrad multibeam vendor format
0316_20131110_060643_raw.all.mb56.gz 10.92MB Simrad multibeam vendor format
0317_20131110_070643_raw.all.mb56.gz 10.88MB Simrad multibeam vendor format
0318_20131110_080643_raw.all.mb56.gz 10.76MB Simrad multibeam vendor format
0319_20131110_090643_raw.all.mb56.gz 10.92MB Simrad multibeam vendor format
0320_20131110_100643_raw.all.mb56.gz 9.45MB Simrad multibeam vendor format
0321_20131110_105813_raw.all.mb56.gz 11.01MB Simrad multibeam vendor format
0322_20131110_115813_raw.all.mb56.gz 10.97MB Simrad multibeam vendor format
0323_20131110_125813_raw.all.mb56.gz 10.98MB Simrad multibeam vendor format
0324_20131110_135813_raw.all.mb56.gz 11.00MB Simrad multibeam vendor format
0325_20131110_145813_raw.all.mb56.gz 10.96MB Simrad multibeam vendor format
0326_20131110_155813_raw.all.mb56.gz 10.92MB Simrad multibeam vendor format
0327_20131110_165813_raw.all.mb56.gz 10.78MB Simrad multibeam vendor format
0328_20131110_175813_raw.all.mb56.gz 10.94MB Simrad multibeam vendor format
0329_20131110_185813_raw.all.mb56.gz 10.91MB Simrad multibeam vendor format
0330_20131110_195813_raw.all.mb56.gz 8.46MB Simrad multibeam vendor format
0331_20131110_205813_raw.all.mb56.gz 8.64MB Simrad multibeam vendor format
0332_20131110_215813_raw.all.mb56.gz 8.30MB Simrad multibeam vendor format
0333_20131110_225813_raw.all.mb56.gz 8.21MB Simrad multibeam vendor format
0334_20131110_235813_raw.all.mb56.gz 8.42MB Simrad multibeam vendor format
0335_20131111_005813_raw.all.mb56.gz 8.62MB Simrad multibeam vendor format
0336_20131111_015813_raw.all.mb56.gz 8.76MB Simrad multibeam vendor format
0337_20131111_025813_raw.all.mb56.gz 9.05MB Simrad multibeam vendor format
0338_20131111_035813_raw.all.mb56.gz 9.29MB Simrad multibeam vendor format
0339_20131111_045813_raw.all.mb56.gz 9.55MB Simrad multibeam vendor format
0340_20131111_055813_raw.all.mb56.gz 8.83MB Simrad multibeam vendor format
0341_20131111_065448_raw.all.mb56.gz 9.47MB Simrad multibeam vendor format
0342_20131111_075448_raw.all.mb56.gz 9.49MB Simrad multibeam vendor format
0343_20131111_085448_raw.all.mb56.gz 9.40MB Simrad multibeam vendor format
0344_20131111_095448_raw.all.mb56.gz 9.37MB Simrad multibeam vendor format
0345_20131111_105448_raw.all.mb56.gz 9.43MB Simrad multibeam vendor format
0346_20131111_115448_raw.all.mb56.gz 9.44MB Simrad multibeam vendor format
0347_20131111_125448_raw.all.mb56.gz 9.45MB Simrad multibeam vendor format
0348_20131111_135448_raw.all.mb56.gz 9.50MB Simrad multibeam vendor format
0349_20131111_145448_raw.all.mb56.gz 9.46MB Simrad multibeam vendor format
0350_20131111_155448_raw.all.mb56.gz 9.48MB Simrad multibeam vendor format
0351_20131111_165448_raw.all.mb56.gz 9.29MB Simrad multibeam vendor format
0352_20131111_175448_raw.all.mb56.gz 8.95MB Simrad multibeam vendor format
0353_20131111_185448_raw.all.mb56.gz 9.14MB Simrad multibeam vendor format
0354_20131111_195448_raw.all.mb56.gz 8.94MB Simrad multibeam vendor format
0355_20131111_205448_raw.all.mb56.gz 8.97MB Simrad multibeam vendor format
0356_20131111_215448_raw.all.mb56.gz 8.92MB Simrad multibeam vendor format
0357_20131111_225448_raw.all.mb56.gz 9.13MB Simrad multibeam vendor format
0358_20131111_235448_raw.all.mb56.gz 10.41MB Simrad multibeam vendor format
0359_20131112_005448_raw.all.mb56.gz 11.61MB Simrad multibeam vendor format
0360_20131112_015448_raw.all.mb56.gz 8.00MB Simrad multibeam vendor format

Metadata Files: 3

Files File Size Description
NBP1310A_Multibeam.xml NGDC created ISO metadata
NBP1310A.xml 14.8KB XML metadata file
mb_bag_info.tar.gz 10.1KB Additional cruise information